Location: Pine Mountain Observatory
(43.7910°N, 120.9377°W)
Time: 11:01:14
(UTC-07:00)

Explorer 11/Cluster Stage 4 - Pass Details

Date: 01 June 2019
Orbit: 467 x 1260 km, 28.8° (Epoch: 19 June)

Event Time Altitude Azimuth Distance (km) Brightness Sun altitude
Rises 03:30:47 0° 251° (WSW) 3,902 - -15.8°
Reaches altitude 10° 03:34:44 10° 234° (SW) 2,792 - -15.4°
Maximum altitude 03:38:54 17° 196° (SSW) 2,126 - -14.9°
Exits shadow 03:39:31 17° 188° (S) 2,112 8.3 -14.9°
Drops below altitude 10° 03:42:37 10° 156° (SSE) 2,424 8.8 -14.5°
Sets 03:45:44 0° 136° (SE) 3,192 9.6 -14.2°
